DW0231 Weather Reports


Display with metric or nautical units.
time (UTC)temp
F
wind
direction
speed
MPH
gust
MPH
rain 1hr
in
rain 24hr
in
rain mn
in
humidity
%
barometer
mb
20260510023042 65 27 0.0 0.0 0.00 0.00 0.00 24 1011.8
20260510021526 67 26 0.0 0.0 0.00 0.00 0.00 22 1011.6
20260510020014 69 27 0.0 0.0 0.00 0.00 0.00 20 1011.6
20260510014601 70 26 0.0 0.0 0.00 0.00 0.00 19 1011.5
20260510013054 71 26 1.0 0.0 0.00 0.00 0.00 17 1011.6
20260510011554 71 26 0.0 0.0 0.00 0.00 0.00 18 1011.7
20260510010031 71 27 1.0 0.0 0.00 0.00 0.00 17 1011.8
20260510004526 71 27 2.0 0.0 0.00 0.00 0.00 17 1011.9
20260510003045 71 30 1.0 0.0 0.00 0.00 0.00 17 1011.9
20260510001554 71 30 2.0 0.0 0.00 0.00 0.00 17 1011.9
20260510000040 72 45 1.0 0.0 0.00 0.00 0.00 17 1012.0
20260509234523 72 21 2.0 0.0 0.00 0.00 0.00 18 1011.9
20260509233005 73 17 2.0 0.0 0.00 0.00 0.00 17 1011.9
20260509231551 73 18 3.0 0.0 0.00 0.00 0.00 19 1011.8
20260509230056 73 34 2.0 0.0 0.00 0.00 0.00 20 1012.1
20260509224536 74 22 3.0 0.0 0.00 0.00 0.00 18 1012.3
20260509223028 73 5 2.0 0.0 0.00 0.00 0.00 21 1012.5
20260509221511 73 9 2.0 0.0 0.00 0.00 0.00 21 1012.4
20260509220056 74 219 2.0 0.0 0.00 0.00 0.00 21 1012.6
20260509214533 74 97 2.0 0.0 0.00 0.00 0.00 21 1012.6
20260509213018 73 251 2.0 0.0 0.00 0.00 0.00 22 1012.9
20260509211502 72 21 2.0 0.0 0.00 0.00 0.00 20 1012.8
20260509210055 72 10 2.0 0.0 0.00 0.00 0.00 21 1012.9
20260509204547 71 22 2.0 0.0 0.00 0.00 0.00 22 1012.9
20260509203033 71 5 2.0 0.0 0.00 0.00 0.00 21 1013.2
20260509201528 71 355 3.0 0.0 0.00 0.00 0.00 21 1013.2
20260509200103 71 322 2.0 0.0 0.00 0.00 0.00 21 1013.2
20260509194537 71 345 2.0 0.0 0.00 0.00 0.00 21 1013.5
20260509193026 70 236 3.0 0.0 0.00 0.00 0.00 21 1013.3
20260509191507 70 217 1.0 0.0 0.00 0.00 0.00 21 1013.4
20260509190050 69 17 3.0 0.0 0.00 0.00 0.00 21 1013.8
20260509184546 69 240 3.0 0.0 0.00 0.00 0.00 22 1013.8
20260509183114 69 10 3.0 0.0 0.00 0.00 0.00 20 1013.8
20260509181542 69 27 4.0 0.0 0.00 0.00 0.00 21 1013.7
20260509180023 68 360 3.0 0.0 0.00 0.00 0.00 21 1013.7
20260509174535 68 5 2.0 0.0 0.00 0.00 0.00 22 1013.8
20260509173025 68 355 4.0 0.0 0.00 0.00 0.00 20 1013.9
20260509171509 68 329 2.0 0.0 0.00 0.00 0.00 22 1013.9
20260509170044 67 350 3.0 0.0 0.00 0.00 0.00 23 1013.8
20260509164531 67 226 2.0 0.0 0.00 0.00 0.00 23 1013.7
20260509163029 66 18 1.0 0.0 0.00 0.00 0.00 22 1013.8
20260509161509 66 360 4.0 0.0 0.00 0.00 0.00 23 1013.8
20260509160007 65 5 2.0 0.0 0.00 0.00 0.00 24 1013.9
20260509154552 66 304 2.0 0.0 0.00 0.00 0.00 25 1013.8
20260509153036 64 14 2.0 0.0 0.00 0.00 0.00 26 1013.7
20260509151541 63 14 1.0 0.0 0.00 0.00 0.00 30 1013.6
20260509150035 60 14 0.0 0.0 0.00 0.00 0.00 44 1013.5
20260509144539 59 14 0.0 0.0 0.00 0.00 0.00 44 1013.5
20260509143004 60 14 2.0 0.0 0.00 0.00 0.00 40 1013.3
20260509141606 63 14 1.0 0.0 0.00 0.00 0.00 28 1013.3
20260509140046 62 13 2.0 0.0 0.00 0.00 0.00 29 1013.0
20260509134529 60 33 1.0 0.0 0.00 0.00 0.00 30 1013.1
20260509133001 58 33 1.0 0.0 0.00 0.00 0.00 32 1012.8
20260509131603 57 40 2.0 0.0 0.00 0.00 0.00 32 1012.7
20260509130051 54 101 1.0 0.0 0.00 0.00 0.00 36 1012.7
20260509124555 50 105 0.0 0.0 0.00 0.00 0.00 42 1012.5
20260509123053 49 105 0.0 0.0 0.00 0.00 0.00 52 1012.3
20260509121540 49 105 0.0 0.0 0.00 0.00 0.00 60 1012.2
20260509120030 48 105 0.0 0.0 0.00 0.00 0.00 58 1011.9
20260509114522 49 105 0.0 0.0 0.00 0.00 0.00 59 1011.7
20260509113100 49 105 0.0 0.0 0.00 0.00 0.00 59 1011.6
20260509111543 49 105 0.0 0.0 0.00 0.00 0.00 59 1011.3
20260509110003 50 105 0.0 0.0 0.00 0.00 0.00 59 1011.3
20260509104549 51 105 0.0 0.0 0.00 0.00 0.00 59 1011.3
20260509103033 51 105 0.0 0.0 0.00 0.00 0.00 58 1011.2
20260509101527 52 105 0.0 0.0 0.00 0.00 0.00 56 1011.2
20260509100011 52 105 0.0 0.0 0.00 0.00 0.00 55 1010.7
20260509094555 52 105 0.0 0.0 0.00 0.00 0.00 52 1010.4
20260509093054 52 105 0.0 0.0 0.00 0.00 0.00 51 1010.5
20260509091539 53 105 0.0 0.0 0.00 0.00 0.00 50 1010.5
20260509090007 53 107 0.0 0.0 0.00 0.00 0.00 49 1010.4
20260509084557 53 107 0.0 0.0 0.00 0.00 0.00 49 1010.3
20260509083049 53 107 0.0 0.0 0.00 0.00 0.00 48 1010.2
20260509081539 54 107 0.0 0.0 0.00 0.00 0.00 48 1010.0
20260509080048 54 107 0.0 0.0 0.00 0.00 0.00 47 1009.7
20260509074506 55 107 0.0 0.0 0.00 0.00 0.00 46 1009.6
20260509073041 55 107 0.0 0.0 0.00 0.00 0.00 45 1009.6
20260509071534 55 107 0.0 0.0 0.00 0.00 0.00 44 1009.3
20260509070010 55 107 0.0 0.0 0.00 0.00 0.00 46 1009.4
20260509064609 56 107 0.0 0.0 0.00 0.00 0.00 44 1009.3
20260509063055 57 107 0.0 0.0 0.00 0.00 0.00 43 1008.7
20260509061554 58 107 0.0 0.0 0.00 0.00 0.00 41 1008.7
20260509060041 59 107 0.0 0.0 0.00 0.00 0.00 39 1008.7
20260509054539 60 107 0.0 0.0 0.00 0.00 0.00 39 1008.6
20260509053020 60 107 1.0 0.0 0.00 0.00 0.00 38 1008.5
20260509051604 60 109 0.0 0.0 0.00 0.00 0.00 39 1008.5
20260509050046 60 109 0.0 0.0 0.00 0.00 0.00 37 1008.5
20260509044538 61 109 0.0 0.0 0.00 0.00 0.00 36 1008.5
20260509043026 62 109 0.0 0.0 0.00 0.00 0.00 36 1008.2
20260509041604 62 109 0.0 0.0 0.00 0.00 0.00 35 1008.3
20260509040054 62 109 0.0 0.0 0.00 0.00 0.00 35 1008.1
20260509034546 63 109 0.0 0.0 0.00 0.00 0.00 34 1008.0
20260509033116 64 109 0.0 0.0 0.00 0.00 0.00 33 1007.7
20260509031551 64 109 0.0 0.0 0.00 0.00 0.00 32 1007.6
20260509030036 65 109 0.0 0.0 0.00 0.00 0.00 32 1007.5
20260509024522 66 109 0.0 0.0 0.00 0.00 0.00 31 1007.5